Weather History for Bowling Green, KY

Change the Weather History Date:

Friday, January 17, 2014

  Actual Average Record
Temperature  
Mean Temperature 28 °F 35 °F  
Max Temperature 35 °F 45 °F 72 °F (1894)
Min Temperature 21 °F 26 °F -15 °F (1982)
Degree Days  
Heating Degree Days 37 30  
Month to date heating degree days 557 505  
Since 1 July heating degree days 2244 2089  
Cooling Degree Days 0 0  
Month to date cooling degree days 0 0  
Year to date cooling degree days 0 0  
Moisture  
Dew Point 19 °F    
Average Humidity 73    
Maximum Humidity 96    
Minimum Humidity 50    
Precipitation  
Precipitation T in 0.11 in 1.37 in (2006)
Month to date precipitation 1.66 1.94  
Year to date precipitation 1.66 1.94  
Snow  
Snow 0.10 in 0.10 in 5.00 in (1994)
Month to date snowfall 1.0 1.6  
Since 1 July snowfall 2.2 2.8  
Snow Depth 0.00 in    
Sea Level Pressure  
Sea Level Pressure 30.00 in    
Wind  
Wind Speed 9 mph (WNW)    
Max Wind Speed 22 mph    
Max Gust Speed 28 mph    
Visibility 8 miles    
Events Snow    
T = Trace of Precipitation, MM = Missing Value Source: NWS Daily Summary

Daily Weather History Graph

Daily Weather History Graph

Search for Another Location

Airport:

Trip Planner

Search our weather history database for the weather conditions in past years. The results will help you decide how hot, cold, wet, or windy it might be!

Date:

Astronomy

Jan. 17, 2014 Rise Set
Actual Time 6:57 AM CST 4:54 PM CST
Civil Twilight 6:28 AM CST 5:22 PM CST
Nautical Twilight 5:57 AM CST 5:54 PM CST
Astronomical Twilight 5:26 AM CST 6:25 PM CST
Moon 6:37 PM CST (1/17) 7:27 AM CST (1/17)
Length of Visible Light 10h 54m
Length of Day
9h 57m
Full, 98% of the Moon is Illuminated
Jan 17
Full
Jan 23
Last Quarter
Jan 30
New
Feb 6
First Quarter
Feb 14
Full

Hourly Weather History & Observations

Time (CST) Temp. Windchill Dew Point Humidity Pressure Visibility Wind Dir Wind Speed Gust Speed Precip Events Conditions
12:53 AM 34.0 °F 28.0 °F 32.0 °F 92% 29.84 in 10.0 mi South 6.9 mph - N/A   Scattered Clouds
1:53 AM 35.1 °F 29.3 °F 32.0 °F 89% 29.83 in 10.0 mi South 6.9 mph - N/A   Overcast
2:53 AM 33.1 °F 26.9 °F 30.9 °F 92% 29.83 in 10.0 mi SSW 6.9 mph - N/A   Mostly Cloudy
3:53 AM 34.0 °F 28.0 °F 30.9 °F 89% 29.81 in 10.0 mi SSW 6.9 mph - N/A   Partly Cloudy
4:53 AM 34.0 °F 26.0 °F 30.0 °F 85% 29.84 in 10.0 mi West 10.4 mph - N/A   Overcast
5:15 AM 34.0 °F 25.0 °F 30.9 °F 89% 29.85 in 10.0 mi NW 12.7 mph - N/A   Overcast
5:36 AM 33.1 °F 26.9 °F 30.0 °F 89% 29.86 in 10.0 mi WNW 6.9 mph - N/A   Overcast
5:53 AM 33.1 °F 27.7 °F 28.9 °F 85% 29.87 in 10.0 mi WNW 5.8 mph - N/A   Overcast
6:53 AM 32.0 °F 22.5 °F 24.1 °F 73% 29.91 in 10.0 mi WNW 12.7 mph - N/A   Overcast
7:27 AM 30.9 °F 20.7 °F 24.1 °F 76% 29.91 in 10.0 mi West 13.8 mph 23.0 mph 0.00 in   Overcast
7:53 AM 30.0 °F 19.1 °F 24.1 °F 79% 29.94 in 5.0 mi West 15.0 mph 24.2 mph 0.00 in Snow Light Snow
8:07 AM 30.0 °F 19.1 °F 21.0 °F 69% 29.94 in 8.0 mi West 15.0 mph 24.2 mph 0.00 in Snow Light Snow
8:34 AM 28.0 °F 17.5 °F 21.9 °F 78% 29.96 in 2.5 mi WNW 12.7 mph - 0.00 in Snow Light Snow
8:43 AM 27.0 °F 17.3 °F 21.9 °F 81% 29.97 in 1.2 mi NW 10.4 mph - 0.00 in Snow Light Snow
8:47 AM 26.6 °F 15.2 °F 21.2 °F 80% 29.98 in 1.5 mi WNW 13.8 mph 20.7 mph 0.00 in Snow Light Snow
8:53 AM 25.0 °F 16.3 °F 21.0 °F 85% 30.00 in 1.2 mi NW 8.1 mph 20.7 mph 0.00 in Snow Light Snow
8:58 AM 25.0 °F 13.6 °F 19.9 °F 81% 29.99 in 1.8 mi NW 12.7 mph 19.6 mph 0.00 in Snow Light Snow
9:01 AM 25.0 °F 14.8 °F 19.9 °F 81% 29.99 in 3.0 mi NW 10.4 mph 19.6 mph 0.00 in Snow Light Snow
9:09 AM 25.0 °F 14.2 °F 19.0 °F 78% 30.00 in 9.0 mi WNW 11.5 mph - 0.00 in   Overcast
9:53 AM 25.0 °F 17.1 °F 16.0 °F 69% 30.03 in 10.0 mi WNW 6.9 mph 17.3 mph 0.00 in   Overcast
10:53 AM 24.1 °F 13.1 °F 15.1 °F 69% 30.04 in 10.0 mi WNW 11.5 mph - 0.00 in   Overcast
11:53 AM 24.1 °F 13.7 °F 14.0 °F 65% 30.03 in 10.0 mi West 10.4 mph 18.4 mph 0.00 in   Overcast
12:53 PM 26.1 °F 14.0 °F 10.9 °F 53% 30.02 in 10.0 mi West 15.0 mph 23.0 mph N/A   Overcast
1:53 PM 25.0 °F 9.9 °F 9.0 °F 51% 30.05 in 10.0 mi West 23.0 mph 27.6 mph N/A   Overcast
2:53 PM 24.1 °F 11.5 °F 8.1 °F 51% 30.09 in 10.0 mi WNW 15.0 mph 21.9 mph N/A   Overcast
3:53 PM 24.1 °F 12.5 °F 9.0 °F 53% 30.11 in 10.0 mi West 12.7 mph - N/A   Overcast
4:53 PM 21.9 °F 11.0 °F 10.9 °F 63% 30.14 in 10.0 mi WNW 10.4 mph - N/A   Overcast
5:53 PM 23.0 °F 13.9 °F 10.0 °F 58% 30.14 in 10.0 mi West 8.1 mph - 0.00 in   Overcast
6:53 PM 21.9 °F 17.2 °F 10.0 °F 60% 30.15 in 10.0 mi WNW 3.5 mph - N/A   Overcast
7:53 PM 21.9 °F 17.2 °F 10.9 °F 63% 30.15 in 10.0 mi NW 3.5 mph - N/A   Overcast
8:53 PM 21.9 °F - 12.9 °F 68% 30.16 in 10.0 mi Calm Calm - N/A   Overcast
9:53 PM 21.9 °F 13.4 °F 14.0 °F 72% 30.16 in 10.0 mi West 6.9 mph - 0.00 in   Overcast
10:53 PM 21.9 °F 13.4 °F 14.0 °F 72% 30.17 in 10.0 mi NNW 6.9 mph - N/A   Overcast
11:53 PM 21.0 °F 16.2 °F 14.0 °F 74% 30.15 in 10.0 mi West 3.5 mph - N/A   Overcast